Regional Weather Roundup
Issued by NWS

Home | Current Version | Previous Version | Text Only | Print | Product List | Glossary On
Versions: 1 2 3 4 5 6 7 8 9 10 11 12 13 14 15 16 17 18 19 20 21 22 23 24 25 26 27 28 29 30 31 32 33 34 35 36 37 38 39 40 41 42 43 44 45 46 47 48 49 50
000
ASUS43 KLOT 220012
RWRIL

ILLINOIS REGIONAL WEATHER ROUNDUP
NATIONAL WEATHER SERVICE CHICAGO/ROMEOVILLE IL
600 PM CST TUE FEB 21 2017

NOTE: "FAIR" INDICATES FEW OR NO CLOUDS BELOW 12,000 FEET WITH NO
SIGNIFICANT WEATHER AND/OR OBSTRUCTIONS TO VISIBILITY.

* THESE STATIONS ARE NOT UNDER NWS QUALITY CONTROL. THEY ALSO MAY NOT
  REPORT WEATHER SUCH AS PRECIPITATION OR FOG.

ILZ001-002-007-009-015-016-024-220100-
NORTHWEST ILLINOIS

CITY           SKY/WX    TMP DP  RH WIND       PRES   REMARKS
MOLINE         PTCLDY    60  44  55 CALM      29.88S
6HR MIN TEMP:  60; 6HR MAX TEMP:  69;

STERLING*      PTCLDY    57  47  69 CALM      29.90S
SAVANNA*       CLOUDY    56  44  65 CALM      29.89S
$$

ILZ003-004-008-010-011-017-018-220100-
NORTH CENTRAL ILLINOIS

CITY           SKY/WX    TMP DP  RH WIND       PRES   REMARKS
ROCKFORD       CLOUDY    60  39  45 CALM      29.91S
6HR MIN TEMP:  59; 6HR MAX TEMP:  67;

FREEPORT*      CLOUDY    51  43  75 SW5       29.91S
ROCHELLE*      CLEAR     55  47  76 W5        29.91R
DE KALB*       PTCLDY    56  52  85 SW5       29.91S
PERU*          PTCLDY    58  53  81 S3        29.90S
$$

ILZ005-006-012>014-019>023-220100-
NORTHEAST ILLINOIS

CITY           SKY/WX    TMP DP  RH WIND       PRES   REMARKS
CHICAGO-OHARE  MOCLDY    62  50  64 SW3       29.89S
6HR MIN TEMP:  62; 6HR MAX TEMP:  66;

CHICAGO-MIDWAY MOCLDY    60  51  72 CALM      29.90S
6HR MIN TEMP:  60; 6HR MAX TEMP:  65;

AURORA         PTCLDY    57  52  83 S5        29.89F
6HR MIN TEMP:  57; 6HR MAX TEMP:  65;

LANSING*       MOCLDY    56  54  91 S5        29.91S
JOLIET*        MOCLDY    59  56  87 CALM      29.91S
WAUKEGAN       CLEAR     50  47  89 SE6       29.88F FOG
6HR MIN TEMP:  50; 6HR MAX TEMP:  65;

DUPAGE AIRPORT PTCLDY    57  49  74 S3        29.89S
6HR MIN TEMP:  56; 6HR MAX TEMP:  65;

KANKAKEE*      PTCLDY    59  53  80 CALM      29.93R
WHEELING       CLEAR     61  47  59 S5        29.90S
6HR MIN TEMP:  61; 6HR MAX TEMP:  66;

MORRIS*        MOCLDY    60  55  82 CALM      29.90S
ROMEOVILLE*    MOCLDY    59  56  90 CALM      29.91S
NORTHERLY ISL    N/A     48  46  93 SE7         N/A
$$

LMZ740>746-220100-
SOUTHERN LAKE MICHIGAN

STATION/POSITION SKY/WX   TEMP    WIND        PRES    VSBY  WAVE
                          AIR SEA DIR/SP/G                  HT/PER
                          (F)     (DEG/KT/KT) (MB)    (MI)  (FT/S)
HARRISON CRIB              55     170/  8/  9   N/A
BURNHAM HARBOR             47     150/  6/  8   N/A
CALUMET HARBOR             50     110/  2/  3 1012.2F
BURNS HARBOR               46      90/  7/  7 1013.5S
MICHIGAN CITY              54      60/  5/  5   N/A
$$

ILZ025>027-034>036-040-047-049-050-058-095>099-220100-
WEST-CENTRAL ILLINOIS

CITY           SKY/WX    TMP DP  RH WIND       PRES   REMARKS
QUINCY         MOCLDY    62  57  83 CALM      29.90R
GALESBURG*     PTCLDY    60  54  78 CALM      29.90S
MACOMB*        MOCLDY    62  56  81 CALM      29.92S
JACKSONVILLE*  MOCLDY    60  57  88 CALM      29.92R
PITTSFIELD*    MOCLDY    61  58  91 SE7       29.92R
$$

ILZ028>032-037-038-041>044-048-051>054-059>061-220100-
CENTRAL ILLINOIS

CITY           SKY/WX    TMP DP  RH WIND       PRES   REMARKS
PONTIAC        PTCLDY    60  56  89 S6        29.92R
BLOOMINGTON    CLOUDY    61  55  81 SE6       29.92S
DECATUR        CLOUDY    59  55  87 SE3       29.92R
PEORIA         MOCLDY    63  55  75 S6        29.90R
6HR MIN TEMP:  63; 6HR MAX TEMP:  68;

LACON*         PTCLDY    60  56  88 CALM      29.90S
LINCOLN*       CLOUDY    62  59  91 CALM      29.92R
SPRINGFIELD    CLOUDY    63  57  81 CALM      29.92R HAZE
6HR MIN TEMP:  62; 6HR MAX TEMP:  64;

TAYLORVILLE    CLOUDY    60  56  88 CALM      29.93R
6HR MIN TEMP:  58; 6HR MAX TEMP:  62;

$$

ILZ033-039-045-046-055>057-062-063-220100-
EAST-CENTRAL ILLINOIS

CITY           SKY/WX    TMP DP  RH WIND       PRES   REMARKS
CHAMPAIGN      CLOUDY    59  54  83 E6        29.92S
RANTOUL*       CLOUDY    61  56  84 CALM      29.92S
MATTOON        CLOUDY    59  53  80 S6        29.91R
PARIS*         MOCLDY    56  52  89 SE3       29.94R
$$

ILZ079-100>102-220100-
SOUTHWEST ILLINOIS

CITY           SKY/WX    TMP DP  RH WIND       PRES   REMARKS
ALTON          PTCLDY    61  55  82 E6        29.92R
BELLEVILLE     PTCLDY    61  56  85 E3        29.89S
CAHOKIA*       CLOUDY    63  53  70 SE3       29.90R
SPARTA*        CLOUDY    60  55  82 CALM      29.93R
$$

ILZ064>066-069>071-074>076-080>082-084>086-088>090-092>094-220100-
SOUTH-CENTRAL ILLINOIS

CITY           SKY/WX    TMP DP  RH WIND       PRES   REMARKS
CARBONDALE     CLOUDY    61  55  81 CALM      29.93R
6HR MIN TEMP:  60; 6HR MAX TEMP:  65; 6HR PCP: TRACE;

CAIRO*         CLOUDY    60  56  87 SE3       29.91R
EFFINGHAM*     CLOUDY    57  55  92 SE3       29.93S
MARION         CLOUDY    63  57  82 SE6       29.93R
MT. VERNON     CLOUDY    60  54  80 E5        29.92S
CENTRALIA*     CLOUDY    60  55  84 CALM      29.92R
SALEM*         CLOUDY    61  54  77 CALM      29.92R
METROPOLIS*    CLOUDY    61  56  85 CALM      29.93R
$$

ILZ067-068-072-073-078-083-087-091-220100-
SOUTHEAST ILLINOIS

CITY           SKY/WX    TMP DP  RH WIND       PRES   REMARKS
LAWRENCEVILLE  CLOUDY    57  56  96 E3        29.94R FOG
FLORA*         CLOUDY    59  56  87 CALM      29.93R
FAIRFIELD*     CLOUDY    58  55  90 CALM      29.92S
HARRISBURG*    CLOUDY    60  56  87 E3        29.93R
ROBINSON*      CLOUDY    55  53  92 CALM      29.95R
CARMI*         CLOUDY    60  56  85 SE5       29.93R
$$

ABBREVIATIONS USED IN REMARKS
   TC - TEMPERATURE IN CELSIUS
  WCI - WIND CHILL INDEX
   HX - HEAT INDEX
  VSB - VISIBILITY
$$





USA.gov is the U.S. government's official web portal to all federal, state and local government web resources and services.